Regional Weather Roundup
Issued by NWS State College, PA

Home | Current Version | Previous Version | Text Only | Print | Product List | Glossary On
Versions: 1 2 3 4 5 6 7 8 9 10 11 12 13 14 15 16 17 18 19 20 21 22 23 24 25 26 27 28 29 30 31 32 33 34 35 36 37 38 39 40 41 42 43 44 45 46 47 48 49 50
000
ASUS41 KCTP 300203
RWRCTP

REGIONAL WEATHER ROUNDUP
NATIONAL WEATHER SERVICE STATE COLLEGE PA
900 PM EST THU JAN 29 2015

Note: "fair" indicates few or no clouds below 12,000 feet with no
significant weather and/or obstructions to visibility.

* = STATION THAT DOES NOT REPORT PRECIPITATION /E.G. RAIN...SNOW...ETC/
    THUNDER OR FOG.

PAZ002>004-007>009-013>016-020>023-029>032-300300-
WESTERN PENNSYLVANIA

CITY           SKY/WX    TMP DP  RH WIND       PRES   REMARKS
ERIE           LGT SNOW  30  27  88 W12G20    29.87R VSB 1
MEADVILLE      LGT SNOW  29  26  89 NW12G20   29.83R VSB 3/4
FRANKLIN*      CLOUDY    32  28  86 W14G22    29.82R
NEW CASTLE     FLURRIES  32  30  93 W10G20    29.89R
BEAVER COUNTY  LGT RAIN  34  32  93 W14G30    29.86R
BUTLER*        CLOUDY    36  34  93 SW13G21   29.85R
PITTSBURGH INT LGT SNOW  36  34  92 W12       29.87R FOG
PITTSBURGH     CLOUDY    35  31  85 W15       29.86R FOG
INDIANA*       CLOUDY    37  37 100 W17       29.85R FOG
LATROBE        LGT RAIN  37  37 100 W17       29.86R
WASHINGTON CO* CLOUDY    36  32  87 SW15G23   29.92R
$$

PAZ004>006-010>012-017>019-024>028-033>037-041-042-045-046-049>053-300300-
CENTRAL PENNSYLVANIA

CITY           SKY/WX    TMP DP  RH WIND       PRES   REMARKS
BRADFORD       LGT SNOW  27  24  89 S6        29.73S FOG
DUBOIS         CLOUDY    33  32  96 SW7       29.76R FOG
CLEARFIELD     LGT SNOW  25  24  96 N3        29.81S FOG
JOHNSTOWN      LGT SNOW  33  31  92 SW9       29.78R FOG
ALTOONA        LGT SNOW  27  24  89 CALM      29.85F FOG
STATE COLLEGE  LGT SNOW  25  23  93 SW6       29.87F
WILLIAMSPORT   LGT SNOW  27  22  81 E10G20    29.92F
SELINSGROVE    CLOUDY    28  23  81 S7        29.96F
FT INDIANTOWN  LGT SNOW  25  24  93 NE2       29.99F FOG
CAPITAL CITY   CLOUDY    27  24  89 E7        29.98F
HARRISBURG     FLURRIES  28  24  85 E7        29.98F
YORK           CLOUDY    30  24  78 SE3       29.97F
$$

PAZ038>040-043-044-047-048-054-055-060>062-067>071-300300-
EASTERN PENNSYLVANIA

CITY           SKY/WX    TMP DP  RH WIND       PRES   REMARKS
SCRANTON       LGT SNOW  26  18  71 VRB6      29.94F
MOUNT POCONO   LGT SNOW  20  16  84 S9        29.90F FOG     WCI   9
ALLENTOWN      LGT SNOW  28  22  78 S5        30.02F
QUAKERTOWN*    CLOUDY    27  23  86 CALM      30.02F
READING        LGT SNOW  28  24  85 CALM      30.00F FOG
LANCASTER      FLURRIES  28  23  81 SE8       29.99F
COATESVILLE    CLOUDY    28  27  93 S5        30.00F
POTTSTOWN      LGT SNOW  28  22  78 CALM      30.03F
BLUE BELL      MOCLDY    32  25  74 S3        30.02F
DOYLESTOWN     CLOUDY    29  20  69 VRB3      30.02F
WILLOW GROVE   NOT AVBL
NORTH PHILA    CLOUDY    34  17  50 VRB3      30.06F
PHILADELPHIA   CLOUDY    33  23  66 S6        30.05F
$$


USA.gov is the U.S. government's official web portal to all federal, state and local government web resources and services.